NOAA 16 DEB, 41428

Orbit data source: Space-Track

NOAA 16 DEB, 41428 is space debris in SSO originally from a launch on Thu, 21 Sep 2000 UTC launched from the Air Force Western Test Range (AFWTR). Debris objects in space refer to the collection of defunct objects orbiting the Earth. Examples of debris include non-operational satellites, rocket bodies, and fragments generated from explosions, collisions, or faulty payload assembly.

Loading next visibility...
Identifier
41428, 2000-055LH
Orbit
SSO
Country
Flag of USUS
Related business
Manufacturer
Unknown
Mission
Spacecraft
Bus & Motor
Unknown
Mass
Unknown
Launch date (UTC)
2000-09-21 (25 years ago)
Launch vehicle
Unknown
Launch site
Air Force Western Test Range (AFWTR)
Object type
Payload
Rocket body
Debris
Shape & HBR
Unknown shape, 0.1 m
Radar Cross Section
Small (<0.1 m²)

Expand to show TLE details & history
Last TLE update: 22 hours ago

TLE from 22 hours ago
0 NOAA 16 DEB
1 41428U 00055LH  25293.04401775  .00011880  00000-0  41671-2 0  9997
2 41428  98.8211  44.3016 0016509 144.3707 215.8583 14.35086372499840
Epoch: 2025-10-20T01:03Z
TLE epoch observation values (Epoch: 2025-10-20T01:03:23.133Z)
Latitude
-0.00001°
Longitude
-0.29677°
Altitude
787.29 km
Speed
7.455 km/s
True Right ascension
02h 57m 12s
True Declination
0° 00' 00"
Sunlit
Object was in full shadow at epoch
Visualization orbit readout
Latitude
Unknown
Longitude
Unknown
Altitude
Unknown
Speed
Unknown
Apparent Right ascension
Unknown
Apparent Declination
Unknown
Sunlit
N/A
Visualization observer readout
Local Sidereal Time
18:02:05
Azimuth
Unknown
Elevation
Unknown
Doppler factor
Unknown
Orbital elements
Apogee altitude
783.727 km
Perigee altitude
760.119 km
Semi-major axis
7,150.06 km
Eccentricity
0.00165
Inclination
98.8211°
RAAN
44.3016°
Arg. of periapsis
144.3707°
True anomaly
215.74767°
Mean anomaly
215.8583°
Eccentric anomaly
215.80297°
Mean motion
3.58987 °/min
Orbital period
100.28 mins
BSTAR
0.0041671
Loading maneuver chart data...
Computing Atmospheric mass density...

Documentation

Showing up to 5 results
|